Location: Mahannah Oil Field
(37.4664°N, 96.6003°W)
Time: 14:55:53
(UTC+00:00)

Altair - Pass Details

Date: 25 January 2021
Orbit: 1501 x 1682 km, 47.2° (Epoch: 05 March)

Event Time Altitude Azimuth Distance (km) Brightness Sun altitude
Exits shadow 12:32:16 13° 265° (W) 3,701 8.9 -12.6°
Maximum altitude 12:41:29 58° 342° (NNW) 1,906 7.8 -10.8°
Drops below altitude 10° 12:51:30 10° 61° (ENE) 3,944 10.3 -8.9°
Sets 12:54:47 0° 65° (ENE) 4,925 11.0 -8.3°
